DW1289 Weather Reports


time (UTC)temp
F
wind
direction
speed
knots
gust
knots
rain 1hr
in
rain 24hr
in
rain mn
in
humidity
%
barometer
mb
20260906231016 84 45 4.3 9.6 0.00 0.00 0.00 56 1014.0
20260906230016 84 45 3.5 7.8 0.00 0.00 0.00 57 1013.9
20260906225016 84 45 4.3 9.6 0.00 0.00 0.00 56 1013.9
20260906224036 84 45 3.5 9.6 0.00 0.00 0.00 56 1013.7
20260906223036 85 45 4.3 8.7 0.00 0.00 0.00 56 1013.8
20260906222016 85 45 4.3 9.6 0.00 0.00 0.00 56 1013.9
20260906221016 85 45 4.3 10.4 0.00 0.00 0.00 55 1013.9
20260906220016 86 45 3.5 9.6 0.00 0.00 0.00 56 1013.9
20260906215016 86 45 4.3 13.0 0.00 0.00 0.00 56 1014.0
20260906214036 86 45 4.3 13.9 0.00 0.00 0.00 56 1013.9
20260906213016 86 45 3.5 13.9 0.00 0.00 0.00 57 1013.8
20260906212016 85 45 3.5 10.4 0.00 0.00 0.00 59 1013.8
20260906211016 86 45 4.3 11.3 0.00 0.00 0.00 56 1013.9
20260906210016 86 45 4.3 11.3 0.00 0.00 0.00 57 1014.0
20260906205016 86 45 3.5 8.7 0.00 0.00 0.00 58 1014.0
20260906204017 86 45 3.5 7.8 0.00 0.00 0.00 58 1014.1
20260906203036 87 45 2.6 8.7 0.00 0.00 0.00 57 1014.1
20260906202016 86 45 3.5 8.7 0.00 0.00 0.00 57 1014.1
20260906201016 88 45 3.5 7.8 0.00 0.00 0.00 58 1013.9
20260906200016 87 45 2.6 5.2 0.00 0.00 0.00 59 1014.1
20260906195016 87 68 3.5 10.4 0.00 0.00 0.00 58 1014.1
20260906194016 87 45 3.5 8.7 0.00 0.00 0.00 59 1014.2
20260906193017 87 45 2.6 7.8 0.00 0.00 0.00 59 1014.3
20260906192016 87 45 2.6 7.0 0.00 0.00 0.00 63 1014.3
20260906191036 86 45 3.5 8.7 0.00 0.00 0.00 62 1014.5
20260906190016 86 68 3.5 9.6 0.00 0.00 0.00 66 1014.5
20260906185036 84 68 3.5 7.8 0.00 0.00 0.00 67 1014.6
20260906184016 84 45 3.5 8.7 0.00 0.00 0.00 68 1014.6
20260906183016 84 45 2.6 7.8 0.00 0.00 0.00 69 1014.6
20260906182016 84 45 3.5 9.6 0.00 0.00 0.00 69 1014.6
20260906181036 84 45 4.3 10.4 0.00 0.00 0.00 70 1014.7
20260906180016 82 45 3.5 8.7 0.00 0.00 0.00 72 1014.8
20260906175016 81 45 1.7 6.1 0.00 0.00 0.00 74 1015.0
20260906174036 81 45 2.6 7.8 0.00 0.00 0.00 75 1015.2
20260906173016 80 45 3.5 8.7 0.00 0.00 0.00 77 1015.3
20260906172016 79 45 2.6 5.2 0.00 0.00 0.00 79 1015.3
20260906171016 78 45 2.6 7.8 0.00 0.00 0.00 81 1015.3
20260906170056 78 45 3.5 7.8 0.00 0.00 0.00 80 1015.4
20260906165016 78 45 3.5 8.7 0.00 0.00 0.00 81 1015.5
20260906164016 78 68 2.6 7.8 0.00 0.00 0.00 82 1015.6
20260906163016 77 45 2.6 7.8 0.00 0.00 0.00 82 1015.7
20260906162016 77 45 1.7 4.3 0.00 0.00 0.00 84 1015.6
20260906161036 77 45 2.6 7.0 0.00 0.00 0.00 84 1015.5
20260906160016 76 68 3.5 8.7 0.00 0.00 0.00 84 1015.6
20260906155016 76 45 2.6 7.8 0.00 0.00 0.00 85 1015.9
20260906154016 76 45 2.6 5.2 0.00 0.00 0.00 85 1015.8
20260906153016 76 45 2.6 7.0 0.00 0.00 0.00 85 1015.5
20260906152016 76 45 2.6 7.8 0.00 0.00 0.00 85 1015.5
20260906151016 76 68 2.6 7.8 0.00 0.00 0.00 86 1015.4
20260906150056 76 45 2.6 8.7 0.00 0.00 0.00 86 1015.3
20260906145016 76 45 1.7 7.0 0.00 0.00 0.00 86 1015.3
20260906144016 76 45 2.6 7.8 0.00 0.00 0.00 86 1015.4
20260906143036 76 68 2.6 7.8 0.00 0.00 0.00 86 1015.4
20260906142016 76 68 2.6 8.7 0.00 0.00 0.00 86 1015.3
20260906141016 76 45 1.7 5.2 0.00 0.00 0.00 87 1015.3
20260906140016 76 45 1.7 6.1 0.00 0.00 0.00 87 1015.1
20260906135016 76 45 2.6 6.1 0.00 0.00 0.00 87 1015.0
20260906134036 76 45 1.7 5.2 0.00 0.00 0.00 87 1014.9
20260906133016 76 45 2.6 6.1 0.00 0.00 0.00 87 1014.8
20260906132056 76 68 1.7 6.1 0.00 0.00 0.00 87 1014.8
20260906131016 76 45 2.6 5.2 0.00 0.00 0.00 87 1014.9
20260906130016 76 45 1.7 5.2 0.00 0.00 0.00 88 1014.7
20260906125016 75 45 2.6 7.0 0.00 0.00 0.00 88 1014.6
20260906124016 75 45 1.7 7.8 0.00 0.00 0.00 88 1014.4
20260906123016 75 45 1.7 5.2 0.00 0.00 0.00 88 1014.5
20260906122036 75 45 1.7 6.1 0.00 0.00 0.00 88 1014.5
20260906121016 75 45 1.7 4.3 0.00 0.00 0.00 89 1014.2
20260906120016 75 45 1.7 5.2 0.00 0.00 0.00 88 1014.1
20260906115016 75 68 2.6 7.0 0.00 0.00 0.00 88 1014.1
20260906114016 75 45 1.7 5.2 0.00 0.00 0.00 88 1013.9
20260906113036 75 68 1.7 5.2 0.00 0.00 0.00 88 1013.9
20260906112016 75 45 1.7 7.8 0.00 0.00 0.00 88 1013.7
20260906111016 75 45 1.7 9.6 0.00 0.00 0.00 87 1013.5
20260906110016 75 45 2.6 6.1 0.00 0.00 0.00 87 1013.5
20260906105016 76 45 1.7 5.2 0.00 0.00 0.00 87 1013.5
20260906104036 76 45 2.6 6.1 0.00 0.00 0.00 86 1013.5
20260906103016 76 23 0.9 5.2 0.00 0.00 0.00 85 1013.4
20260906102016 76 45 1.7 5.2 0.00 0.00 0.00 85 1013.3
20260906101016 76 45 1.7 4.3 0.00 0.00 0.00 85 1013.3
20260906100016 76 45 0.9 4.3 0.00 0.00 0.00 85 1013.1
20260906095016 76 45 0.9 2.6 0.00 0.00 0.00 85 1012.9
20260906094056 76 45 0.9 2.6 0.00 0.00 0.00 85 1012.8
20260906093016 76 0.0 3.5 0.00 0.00 0.00 84 1012.6
20260906092016 77 0.0 2.6 0.00 0.00 0.00 84 1012.7
20260906091016 77 0.0 0.9 0.00 0.00 0.00 83 1012.6
20260906090016 77 0.0 1.7 0.00 0.00 0.00 83 1012.4
20260906085016 77 0.0 1.7 0.00 0.00 0.00 83 1012.5
20260906084016 77 45 0.9 4.3 0.00 0.00 0.00 81 1012.5
20260906083016 77 45 1.7 7.0 0.00 0.00 0.00 81 1012.4
20260906082016 77 45 0.9 5.2 0.00 0.00 0.00 82 1012.5
20260906081016 77 45 0.9 3.5 0.00 0.00 0.00 84 1012.4
20260906080016 77 0.0 0.0 0.00 0.00 0.00 85 1012.5
20260906075016 77 0.0 0.9 0.00 0.00 0.00 85 1012.5
20260906074016 77 0.0 1.7 0.00 0.00 0.00 86 1012.2
20260906073016 78 0.0 0.0 0.00 0.00 0.00 86 1012.2
20260906072016 78 0.0 0.0 0.00 0.00 0.00 86 1012.2
20260906071016 78 0.0 0.0 0.00 0.00 0.00 85 1012.4
20260906070036 78 0.0 0.0 0.00 0.00 0.00 85 1012.6
20260906065056 79 0.0 0.0 0.00 0.00 0.00 85 1012.5
20260906064016 79 0.0 2.6 0.00 0.00 0.00 85 1012.7
20260906063016 79 0.0 0.0 0.00 0.00 0.00 85 1012.8
20260906062016 79 0.0 0.0 0.00 0.00 0.00 85 1012.9
20260906061016 79 0.0 0.0 0.00 0.00 0.00 84 1012.9
20260906060016 79 0.0 0.0 0.00 0.00 0.00 83 1012.7
20260906055016 80 0.0 0.9 0.00 0.00 0.00 83 1012.6
20260906054016 80 0.0 0.0 0.00 0.00 0.00 83 1012.6
20260906053016 80 0.0 1.7 0.00 0.00 0.00 83 1012.5
20260906052016 80 0.0 3.5 0.00 0.00 0.00 83 1012.5
20260906051016 81 0.0 1.7 0.00 0.00 0.00 82 1012.5
20260906050016 81 0.0 0.0 0.00 0.00 0.00 82 1012.5
20260906045016 81 0.0 0.9 0.00 0.00 0.00 82 1012.5
20260906044016 81 0.0 1.7 0.00 0.00 0.00 81 1012.4
20260906043016 81 0.0 0.9 0.00 0.00 0.00 81 1012.2
20260906042016 81 0.0 0.9 0.00 0.00 0.00 81 1012.0
20260906041016 82 0.0 2.6 0.00 0.00 0.00 81 1012.0
20260906040016 82 0.0 0.0 0.00 0.00 0.00 81 1011.8
20260906035016 82 0.0 1.7 0.00 0.00 0.00 81 1011.9
20260906034016 82 248 0.9 1.7 0.00 0.00 0.00 81 1011.8
20260906033037 82 248 0.9 2.6 0.00 0.00 0.00 81 1011.7
20260906032016 83 248 1.7 5.2 0.00 0.00 0.00 81 1011.7
20260906031016 83 248 1.7 4.3 0.00 0.00 0.00 81 1011.8
20260906030016 83 0.0 0.0 0.00 0.00 0.00 79 1011.9
20260906025016 84 0.0 0.0 0.00 0.00 0.00 77 1012.0
20260906024036 84 0.0 0.0 0.00 0.00 0.00 76 1011.9
20260906023036 84 0.0 0.0 0.00 0.00 0.00 75 1011.9
20260906022016 84 0.0 0.0 0.00 0.00 0.00 74 1011.7
20260906021016 85 0.0 0.0 0.00 0.00 0.00 72 1011.4
20260906020016 85 0.0 0.0 0.00 0.00 0.00 72 1011.4
20260906015016 85 0.0 0.0 0.00 0.00 0.00 71 1011.2
20260906014016 86 0.0 0.0 0.00 0.00 0.00 71 1011.0
20260906013016 86 0.0 0.0 0.00 0.00 0.00 70 1010.8
20260906012016 87 0.0 0.0 0.00 0.00 0.00 69 1010.9
20260906011036 87 0.0 0.0 0.00 0.00 0.00 68 1010.8
20260906010036 88 0.0 0.0 0.00 0.00 0.00 67 1010.6
20260906005016 88 0.0 0.0 0.00 0.00 0.00 65 1010.5
20260906004016 89 0.0 0.0 0.00 0.00 0.00 65 1010.7
20260906003016 90 0.0 0.0 0.00 0.00 0.00 64 1010.8
20260906002016 90 0.0 0.9 0.00 0.00 0.00 62 1010.9
20260906001016 91 0.0 1.7 0.00 0.00 0.00 61 1011.1
20260906000036 91 0.0 0.0 0.00 0.00 0.00 60 1011.2
20260905235016 91 0.0 0.0 0.00 0.00 0.00 59 1011.2
20260905234036 92 0.0 0.0 0.00 0.00 0.00 58 1011.2
20260905233016 93 0.0 0.9 0.00 0.00 0.00 57 1011.3
20260905232056 93 0.0 1.7 0.00 0.00 0.00 56 1011.3